Погода в Биробиджане

Россия / Еврейская автономная область     48°47′40″N   132°55′18″E
темп.,
°C
ветер,
м/с
пор.,
м/с
влажн.,
%
обл.,
%
осадки,
мм/ч
давл.,
гПа
погр.,
м
24 января, пн
пн2401:00−30сз1110097 0.0 10269
04:00−31ссз1110041 0.0 10279
07:00−31з1110022 0.0 10269
10:00−29з009918 0.0 102717
13:00−20ююв22915 0.0 1025142
16:00−17юв23916 0.0 1024117
19:00−25в1110035 0.0 10259
22:00−28с2210081 0.0 102511
25 января, вт
вт2501:00−29ссз1110096 0.0 10269
04:00−29ссз1110097 0.0 10269
07:00−30с1110095 0.0 10269
10:00−27с1110091 0.0 102628
13:00−20вюв119587 0.0 1025122
16:00−18юв1192100 0.0 1024118
19:00−22ююв1199100 0.0 10249
22:00−23с0099100 0.0 10249
26 января, ср
ср2601:00−24ссз0010094 0.0 10249
04:00−24зсз00100100 0.0 10249
07:00−25з0010086 0.0 10239
10:00−22ссв009998 0.0 102434
13:00−17юв109194 0.0 1023159
16:00−16юв229175 0.0 1022144
19:00−23ююв1110087 0.0 10239
22:00−25ссз1110099 0.1 10249
27 января, чт
чт2701:00−25с1110099 0.1 10259
04:00−27ссз1110096 0.1 10259
07:00−29зсз1110041 0.0 10259
10:00−27зсз119934 0.0 102515
13:00−19ю119128 0.0 1024164
16:00−16юв239379 0.0 1022137
19:00−25вюв1110056 0.0 10229
22:00−27зсз2210094 0.0 102110
28 января, пт
пт2801:00−28з229910 0.0 101910
04:00−28з229799 0.0 101811
07:00−21з1293100 0.0 101647
10:00−21зсз119565 0.0 101523
13:00−15зсз24767 0.0 1013530
16:00−13зюз1372100 0.0 1012612
19:00−18зсз0198100 0.1 101310
22:00−25зсз22965 0.1 101313